This is the latest recevied weather packets stored in our database for station/object KB3HLL. If no packets are shown the sender has not sent any weather packets the latest 10 day(s).
| Time | Temp. | Humidity | Pressure | Rain* | Wind** | Luminosity | Snow |
|---|---|---|---|---|---|---|---|
| 1777762277 | 6.11° C | 73% | 1013.3 hPa | 0 mm | - | 41 W/m² | - |
| 1777761977 | 6.11° C | 72% | 1013.3 hPa | 0 mm | - | 57 W/m² | - |
| 1777761677 | 6.11° C | 72% | 1013.1 hPa | 0 mm | - | 71 W/m² | - |
| 1777761377 | 6.67° C | 74% | 1012.9 hPa | 0 mm | - | 81 W/m² | - |
| 1777761077 | 6.67° C | 70% | 1013 hPa | 0 mm | - | 98 W/m² | - |
| 1777760778 | 6.67° C | 71% | 1013 hPa | 0 mm | - | 116 W/m² | - |
| 1777760478 | 6.67° C | 71% | 1012.9 hPa | 0 mm | - | 129 W/m² | - |
| 1777760177 | 6.67° C | 70% | 1012.9 hPa | 0 mm | - | 141 W/m² | - |
| 1777759877 | 6.67° C | 70% | 1012.9 hPa | 0 mm | - | 165 W/m² | - |
| 1777759578 | 7.22° C | 68% | 1012.9 hPa | 0 mm | - | 183 W/m² | - |
| 1777759278 | 7.22° C | 68% | 1012.8 hPa | 0 mm | - | 263 W/m² | - |
| 1777758978 | 7.22° C | 69% | 1012.8 hPa | 0 mm | - | 270 W/m² | - |
| 1777758678 | 7.22° C | 69% | 1013 hPa | 0 mm | - | 350 W/m² | - |
| 1777758377 | 7.22° C | 69% | 1012.9 hPa | 0 mm | - | 180 W/m² | - |
| 1777758078 | 7.78° C | 69% | 1012.9 hPa | 0 mm | - | 169 W/m² | - |
| 1777757777 | 7.78° C | 67% | 1012.9 hPa | 0 mm | - | 339 W/m² | - |
| 1777757477 | 7.78° C | 68% | 1012.8 hPa | 0 mm | - | 378 W/m² | - |
| 1777757177 | 7.78° C | 67% | 1012.7 hPa | 0 mm | - | 365 W/m² | - |
| 1777756878 | 7.78° C | 67% | 1012.7 hPa | 0 mm | - | 276 W/m² | - |
| 1777756578 | 7.78° C | 68% | 1012.7 hPa | 0 mm | - | 466 W/m² | - |
| 1777756278 | 7.78° C | 67% | 1012.7 hPa | 0 mm | - | 451 W/m² | - |
| 1777755978 | 7.78° C | 68% | 1012.8 hPa | 0 mm | - | 421 W/m² | - |
| 1777755677 | 7.22° C | 68% | 1012.8 hPa | 0 mm | - | 336 W/m² | - |
| 1777755377 | 7.22° C | 68% | 1012.8 hPa | 0 mm | - | 371 W/m² | - |
| 1777755078 | 7.22° C | 68% | 1012.7 hPa | 0 mm | - | 472 W/m² | - |
* Rain latest hour (hover to see other rain measurements)
** Current wind speed in m/s (hover to see current wind gust speed)